Location: Ciochowice
(50.4289°N, 18.5217°E)
Time: 07:17:15
(UTC+02:00)

ISS - Visible Passes

Search period start: 27 May 2018 00:00
Search period end: 06 June 2018 00:00
Orbit: 402 x 407 km, 51.6° (Epoch: 27 May)

Date Brightness Start Highest point End Pass type
(mag) Time Alt. Az. Time Alt. Az. Time Alt. Az.
27 May -4.0 00:23:06 10° WNW 00:26:22 69° SSW 00:26:26 69° SSW visible
27 May -3.6 21:54:19 10° W 21:57:35 71° N 22:00:52 10° E visible
27 May -3.9 23:30:54 10° WNW 23:34:11 90° NE 23:35:44 29° ESE visible
28 May -1.6 01:07:35 10° W 01:08:21 15° W 01:08:21 15° W visible
28 May -3.7 22:38:40 10° WNW 22:41:57 75° N 22:45:05 11° E visible
29 May -3.0 00:15:14 10° W 00:17:42 36° WSW 00:17:42 36° WSW visible
29 May -3.5 21:46:25 10° W 21:49:42 69° N 21:52:58 10° E visible
29 May -3.8 23:22:58 10° WNW 23:26:12 61° SSW 23:27:06 41° SE visible
30 May -3.9 22:30:42 10° WNW 22:34:00 83° SSW 22:36:31 16° ESE visible
31 May -2.0 00:07:29 10° W 00:09:08 20° WSW 00:09:08 20° WSW visible
31 May -3.7 21:38:27 10° WNW 21:41:44 80° N 21:45:01 10° E visible
31 May -3.1 23:15:03 10° W 23:18:04 36° SSW 23:18:35 33° S visible
01 Jun -3.6 22:22:42 10° WNW 22:25:55 54° SSW 22:28:04 19° SE visible
02 Jun -1.3 00:00:16 10° WSW 00:00:41 11° WSW 00:00:41 11° WSW visible
02 Jun -3.8 21:30:24 10° WNW 21:33:41 76° SSW 21:36:56 10° ESE visible
02 Jun -2.2 23:07:18 10° W 23:09:48 20° SW 23:10:11 20° SSW visible
03 Jun -2.7 22:14:44 10° W 22:17:41 31° SSW 22:19:42 16° SSE visible
04 Jun -1.4 23:00:30 10° WSW 23:01:21 11° SW 23:01:52 10° SW visible
05 Jun -1.8 22:07:02 10° W 22:09:18 17° SW 22:11:26 10° S visible
